Location: ?????
(55.8833°N, 37.6500°E)
Time: 09:09:41
(UTC+00:00)

ATLAS 3B R/B - Pass Details

Date: 27 February 2020
Orbit: 1029 x 1166 km, 63.8° (Epoch: 12 March)

Event Time Altitude Azimuth Distance (km) Brightness Sun altitude
Rises 17:36:58 0° 306° (NW) 3,793 6.9 -22.7°
Reaches altitude 10° 17:39:34 10° 308° (NW) 2,846 5.9 -23.1°
Maximum altitude 17:46:18 78° 35° (NE) 1,078 2.6 -24.0°
Enters shadow 17:48:14 50° 111° (ESE) 1,324 2.7 -24.2°
